Mobile, AL

12:54 AM CDT on March 24, 2017 (GMT -0500)
Mobile Regional

Weather History for KMOB - July, 2013

Change the Weather History Date:

Monday, July 15, 2013

  Actual Average Record
Temperature  
Mean Temperature 81 °F 82 °F  
Max Temperature 88 °F 91 °F 103 °F (1980)
Min Temperature 74 °F 73 °F 62 °F (1967)
Cooling Degree Days 16 17  
Month to date cooling degree days 216 253  
Year to date cooling degree days 1066 1142  
Since 1 June cooling degree days 702 697  
Growing Degree Days 30 (Base 50)    
Moisture  
Dew Point 72 °F    
Average Humidity 78    
Maximum Humidity 94    
Minimum Humidity 61    
Precipitation  
Precipitation 0.01 in 0.22 in 3.42 in (1931)
Month to date precipitation 6.97 3.49  
Year to date precipitation 39.62 36.44  
Sea Level Pressure  
Sea Level Pressure 30.10 in    
Wind  
Wind Speed 6 mph (East)    
Max Wind Speed 21 mph    
Max Gust Speed 24 mph    
Visibility 8 miles    
Events Rain , Thunderstorm    
T = Trace of Precipitation, MM = Missing Value Source: NWS Daily Summary

Daily Weather History Graph

Daily Weather History Graph

Search for Another Location

Airport or City:

Trip Planner

Search our weather history database for the weather conditions in past years. The results will help you decide how hot, cold, wet, or windy it might be!

Date:

Astronomy

Jul. 15, 2013 Rise Set
Actual Time 6:00 AM CDT 7:56 PM CDT
Civil Twilight 5:33 AM CDT 8:24 PM CDT
Nautical Twilight 5:00 AM CDT 8:56 PM CDT
Astronomical Twilight 4:25 AM CDT 9:31 PM CDT
Moon 12:46 PM CDT (7/15) No Moon Set
Length of Visible Light 14h 50m
Length of Day
13h 56m
Waxing Crescent, 45% of the Moon is Illuminated
Jul 15
Waxing Crescent
Jul 15
First Quarter
Jul 22
Full
Jul 29
Last Quarter
Aug 6
New

Hourly Weather History & Observations

Time (CDT) Temp. Heat Index Dew Point Humidity Pressure Visibility Wind Dir Wind Speed Gust Speed Precip Events Conditions
12:56 AM 75.0 °F - 71.1 °F 87% 30.03 in 10.0 mi SSE 4.6 mph - N/A   Partly Cloudy
1:18 AM 73.4 °F - 71.6 °F 94% 30.04 in 10.0 mi Calm Calm - N/A   Mostly Cloudy
1:56 AM 75.9 °F - 72.0 °F 87% 30.03 in 10.0 mi Calm Calm - N/A   Mostly Cloudy
2:49 AM 75.2 °F - 71.6 °F 89% 30.04 in 10.0 mi ESE 3.5 mph - N/A   Partly Cloudy
2:56 AM 77.0 °F - 72.0 °F 84% 30.04 in 10.0 mi SE 4.6 mph - N/A   Clear
3:56 AM 73.9 °F - 71.1 °F 91% 30.04 in 10.0 mi Calm Calm - N/A   Partly Cloudy
4:56 AM 73.9 °F - 72.0 °F 93% 30.06 in 10.0 mi NNE 3.5 mph - N/A   Clear
5:56 AM 73.9 °F - 72.0 °F 93% 30.07 in 10.0 mi NE 5.8 mph - N/A   Scattered Clouds
6:53 AM 73.4 °F - 71.6 °F 94% 30.10 in 2.0 mi ENE 6.9 mph - N/A   Mostly Cloudy
6:56 AM 75.0 °F - 72.0 °F 90% 30.10 in 2.0 mi ENE 8.1 mph - N/A   Mostly Cloudy
7:56 AM 75.9 °F - 73.0 °F 91% 30.11 in 2.0 mi ENE 5.8 mph - N/A   Overcast
8:04 AM 75.2 °F - 73.4 °F 94% 30.12 in 3.0 mi East 6.9 mph - N/A   Overcast
8:32 AM 77.0 °F - 73.4 °F 89% 30.13 in 3.0 mi East 8.1 mph - N/A   Overcast
8:56 AM 79.0 °F - 73.9 °F 84% 30.13 in 7.0 mi ENE 6.9 mph - N/A   Overcast
9:44 AM 78.8 °F - 73.4 °F 83% 30.14 in 7.0 mi ENE 5.8 mph - N/A   Mostly Cloudy
9:56 AM 80.1 °F 83.8 °F 72.0 °F 76% 30.13 in 7.0 mi ENE 6.9 mph - N/A   Mostly Cloudy
10:56 AM 84.0 °F 90.2 °F 73.0 °F 69% 30.13 in 7.0 mi East 8.1 mph - N/A   Mostly Cloudy
11:34 AM 82.4 °F 88.2 °F 73.4 °F 74% 30.14 in 7.0 mi ENE 13.8 mph - N/A   Mostly Cloudy
11:43 AM 82.4 °F 88.2 °F 73.4 °F 74% 30.14 in 7.0 mi East 12.7 mph - N/A   Mostly Cloudy
11:56 AM 84.0 °F 90.2 °F 73.0 °F 69% 30.13 in 7.0 mi East 10.4 mph - N/A   Mostly Cloudy
12:56 PM 84.0 °F 89.6 °F 72.0 °F 67% 30.13 in 7.0 mi ESE 13.8 mph 18.4 mph N/A   Overcast
1:14 PM 84.2 °F 89.6 °F 71.6 °F 66% 30.13 in 7.0 mi East 11.5 mph - 0.00 in Rain Light Rain
1:56 PM 86.0 °F 92.2 °F 72.0 °F 63% 30.11 in 10.0 mi ESE 15.0 mph - 0.00 in   Mostly Cloudy
2:15 PM 86.0 °F 91.8 °F 71.6 °F 62% 30.10 in 10.0 mi ESE 12.7 mph - N/A Thunderstorm Thunderstorm
2:22 PM 86.0 °F 91.8 °F 71.6 °F 62% 30.10 in 10.0 mi ESE 11.5 mph - N/A Thunderstorm Thunderstorm
2:40 PM 80.6 °F 84.6 °F 71.6 °F 74% 30.10 in 7.0 mi NE 10.4 mph 19.6 mph N/A Thunderstorm Thunderstorm
2:56 PM 81.0 °F 86.2 °F 73.9 °F 79% 30.09 in 7.0 mi ENE 6.9 mph - 0.01 in Thunderstorm Thunderstorm
3:08 PM 84.2 °F 92.3 °F 75.2 °F 74% 30.10 in 8.0 mi ENE 5.8 mph - N/A   Mostly Cloudy
3:56 PM 82.9 °F 88.0 °F 72.0 °F 69% 30.09 in 10.0 mi SE 12.7 mph - 0.00 in Rain Light Rain
4:56 PM 84.0 °F 89.6 °F 72.0 °F 67% 30.08 in 10.0 mi East 11.5 mph - N/A   Mostly Cloudy
5:56 PM 82.9 °F 87.0 °F 70.0 °F 65% 30.09 in 10.0 mi East 5.8 mph - N/A   Mostly Cloudy
6:56 PM 81.0 °F 85.2 °F 72.0 °F 74% 30.09 in 10.0 mi SE 3.5 mph - N/A   Mostly Cloudy
7:56 PM 80.1 °F 84.5 °F 73.9 °F 81% 30.12 in 10.0 mi Calm Calm - N/A   Mostly Cloudy
8:56 PM 78.1 °F - 73.0 °F 84% 30.12 in 10.0 mi North 3.5 mph - N/A   Scattered Clouds
9:56 PM 75.9 °F - 73.0 °F 91% 30.12 in 10.0 mi Calm Calm - N/A   Scattered Clouds
10:56 PM 75.0 °F - 72.0 °F 90% 30.12 in 10.0 mi Calm Calm - N/A   Scattered Clouds
11:56 PM 75.9 °F - 73.0 °F 91% 30.12 in 10.0 mi NNE 5.8 mph - N/A   Clear